date,batt_volt,AirTemp_C,Solar_kW,RH,Manual_BP,StationID,WS_ms,PTemp,WS_15min_max,Prog_Sig,Solar_Raw,Bar_mbar,Solar_MJ,Max_WS_2min,Pressure_Raw,Rain_mm,WD_15min_ave,Max_AirTemp_1min,WindDir,WS_15min_med,WS_15min_ave,Elevation_Correction
2020-09-01T00:03:36Z,12.93699,14.16665,0.0,78.86176,0,1156,0.1764,15.92071,2.4304,43690,0.0,1019.484,0.0,0.9210001,1017.683,0,281.960152378,14.23,282.5327,0.2744,0.470515973373,1.80078
2020-09-01T00:18:37Z,12.93699,14.16665,0.0,81.53791,0,1156,0.1568,15.79872,2.0384,43690,0.0,1019.484,0.0,1.176,1017.683,0,283.791926486,14.2,291.985,0.196,0.31104852071,1.80078
2020-09-01T00:33:34Z,12.94251,14.2344,0.0,81.23303,0,1156,1.0976,15.67672,4.3512,43690,0.0,1019.484,0.0,4.116,1017.683,0,284.090587101,14.27,284.3607,0.3626,0.773733330952,1.80078
2020-09-01T00:48:36Z,12.94251,14.2344,0.0,82.82518,0,1156,1.9796,15.57957,10.388,43690,0.0,1019.484,0.0,2.685,1017.683,0,281.81143005,14.34,277.6984,2.5088,3.35890646509,1.80078
2020-09-01T01:03:38Z,12.94251,14.33603,0.0,82.9268,0,1156,1.4112,15.52987,11.172,43690,0.0,1019.809,0.0,5.802,1018.008,0,282.222663501,14.34,277.025,2.1364,3.3831455426,1.80078
2020-09-01T01:18:39Z,12.93699,14.13277,0.0,82.82518,0,1156,9.4668,15.55471,10.7016,43690,0.0,1019.809,0.0,10.7,1018.008,0,281.673541864,14.34,283.0138,1.6464,2.89906032249,1.80078
2020-09-01T01:33:39Z,12.94251,14.16665,0.0,83.26556,0,1156,1.274,15.55471,10.7016,43690,0.0,1019.809,0.0,1.98,1018.008,0,283.682363385,14.27,285.924,0.6468,2.77763307456,1.80078
2020-09-01T01:48:40Z,12.94251,14.20052,0.0,83.0623,0,1156,0.6664,15.48242,7.0952,43690,0.0,1019.809,0.0,3.077,1018.008,0,286.191506051,14.23,280.3441,0.196,0.606440234911,1.80078
2020-09-01T02:03:40Z,12.94251,14.09907,0.0,84.34984,0,1156,0.4116,15.43272,3.7828,43690,0.0,1020.544,0.0,2.078,1018.743,0,285.467793103,14.23,281.0665,0.2548,0.45068402071,1.80078
2020-09-01T02:18:40Z,12.94802,14.16669,0.0,85.43364,0,1156,0.1764,15.36042,2.4108,43690,0.0,1020.544,0.0,1.156,1018.743,0,282.885670904,14.2,279.4063,0.1568,0.220586982249,1.80078
2020-09-01T02:33:41Z,12.94336,13.92992,0.0,88.9234,0,1156,0.1176,15.31072,1.862,43690,0.0,1020.544,0.0,1.392,1018.743,0,276.10596672,13.96,273.0585,0.1568,0.250972780473,1.80078
2020-09-01T02:48:42Z,12.94844,13.89732,0.0,89.84017,0,1156,0.1764,15.26327,0.4312,43690,0.0,1020.544,0.0,0.216,1018.743,0,273.816765493,13.9,271.5978,0.098,0.109017751479,1.80078
2020-09-01T03:03:42Z,12.94259,13.86336,0.0,89.8739,0,1156,0.1764,15.19098,1.0584,43690,0.0,1020.723,0.0,1.058,1018.922,0,272.934206152,13.93,267.1717,0.1176,0.138591715976,1.80078
2020-09-01T03:18:42Z,12.94885,13.89789,0.0,89.60397,0,1156,0.1568,15.16613,1.274,43690,0.0,1020.723,0.0,0.333,1018.922,0,274.517051569,13.97,277.8783,0.1764,0.243064967516,1.80078
2020-09-01T03:33:42Z,12.94915,13.72759,0.0,89.8057,0,1156,0.1176,15.11642,0.3136,43690,0.0,1020.723,0.0,0.314,1018.922,0,283.853258537,13.83,291.9921,0.0588,0.065874556213,1.80078
2020-09-01T03:48:39Z,12.95361,13.49078,0.0,90.34826,0,1156,0.0,14.97183,2.7636,43690,0.0,1020.723,0.0,0.157,1018.922,0,288.411072082,13.63,293.9181,0.0392,0.107799999359,1.80078
2020-09-01T04:03:40Z,12.95363,13.59438,0.0,91.33403,0,1156,0.0,14.85209,0.2352,43690,0.0,1020.732,0.0,0.02,1018.932,0,284.374740446,13.63,285.1736,0.0196,0.020723566879,1.80078
2020-09-01T04:18:40Z,12.9485,13.35615,0.0,91.60319,0,1156,0.0,14.75494,0.3136,43690,0.0,1020.732,0.0,0.078,1018.932,0,283.093118382,13.56,292.2874,0.0098,0.0237829268293,1.80078
2020-09-01T04:33:39Z,12.94956,13.4607,0.0,92.2519,0,1156,0.0196,14.66005,2.9792,43690,0.0,1020.732,0.0,0.078,1018.932,0,279.928817611,13.56,276.6923,0.0,0.244826033728,1.80078
2020-09-01T04:48:40Z,12.95046,13.70125,0.0,92.29161,0,1156,0.0392,14.7075,0.1176,43690,0.0,1020.732,0.0,0.176,1018.932,0,262.554869213,13.8,255.9981,0.0196,0.0221514792899,1.80078
2020-09-01T05:03:41Z,12.94396,13.66256,0.0,91.40252,0,1156,0.0196,14.75494,0.1372,43690,0.0,1021.16,0.0,0.039,1019.359,0,260.339171152,13.73,251.6215,0.0196,0.0260946745562,1.80078
2020-09-01T05:18:41Z,12.94822,13.6627,0.0,91.74153,0,1156,0.0196,14.7798,0.1568,43690,0.0,1021.16,0.0,0.09800001,1019.359,0,253.371615426,13.73,263.5286,0.0196,0.0354887573964,1.80078
2020-09-01T05:33:45Z,12.94294,13.45633,0.0,91.83783,0,1156,0.0,14.80465,0.0588,43690,0.0,1021.16,0.0,0.02,1019.359,0,261.223324201,13.63,260.3143,0.0,0.00714823529412,1.80078
2020-09-01T05:48:44Z,12.94892,13.62623,0.0,92.68564,0,1156,0.0196,14.75494,0.1176,43690,0.0,1021.16,0.0,0.118,1019.359,0,262.658936555,13.69,253.0772,0.0,0.0113656804734,1.80078
2020-09-01T06:03:43Z,12.94281,13.62714,0.0,92.55171,0,1156,0.0196,14.75494,0.1568,43690,0.0,1022.278,0.0,0.059,1020.477,0,261.651236984,13.59,266.9358,0.0,0.0164686390533,1.80078
2020-09-01T06:18:43Z,12.94867,13.08563,0.0,92.78976,0,1156,1.1564,14.68264,1.0976,43690,0.0,1022.278,0.0,1.098,1020.477,0,275.552046407,13.15,287.4314,0.0,0.292260346154,1.80078
2020-09-01T06:33:43Z,12.96188,12.7211,0.0,92.80404,0,1156,0.9211999,14.46801,1.4112,43690,0.0,1022.278,0.0,1.039,1020.477,0,273.210601956,12.96,281.6299,0.7056,0.689943184024,1.80078
2020-09-01T06:48:43Z,12.96889,12.18438,0.0,93.3897,0,1156,0.0,14.1585,1.1368,43690,0.0,1022.278,0.0,0.882,1020.477,0,289.905404465,12.35,304.7798,0.0,0.227777510651,1.80078
2020-09-01T07:03:42Z,12.97449,12.1179,0.0,94.2053,0,1156,0.0,13.84898,0.784,43690,0.0,1022.179,0.0,0.784,1020.379,0,306.301920265,12.29,292.95,0.0,0.0572923076923,1.80078
2020-09-01T07:18:47Z,12.97449,11.54185,0.0,94.51033,0,1156,0.0,13.61176,0.0,43690,0.0,1022.179,0.0,0.0,1020.379,0,277.567735562,11.64,249.1616,0.0,0.0,1.80078
2020-09-01T07:33:45Z,12.98553,11.71128,0.0,94.88309,0,1156,0.0196,13.42424,1.4504,43690,0.0,1022.179,0.0,0.9210001,1020.379,0,251.717647141,11.81,258.4005,0.0,0.166194077515,1.80078
2020-09-01T07:48:44Z,12.98553,12.05015,0.0,95.15418,0,1156,1.1172,13.25932,1.3132,43690,0.0,1022.179,0.0,1.254,1020.379,0,266.824715946,12.15,283.1338,0.784,0.671734898225,1.80078
2020-09-01T08:03:44Z,12.98553,12.66011,0.0,95.01863,0,1156,1.3132,13.23446,1.568,43690,0.0,1022.018,0.0,1.313,1020.217,0,268.119909822,12.76,276.3971,0.9799999,0.919692285799,1.80078
2020-09-01T08:18:44Z,12.98001,12.32124,0.0,94.64588,0,1156,0.784,13.23446,1.4308,43690,0.0,1022.018,0.0,0.8620001,1020.217,0,274.093074153,12.29,271.2965,0.1176,0.438042592899,1.80078
2020-09-01T08:33:44Z,12.98553,12.15181,0.0,94.67976,0,1156,0.784,13.14183,1.0584,43690,0.0,1022.018,0.0,0.882,1020.217,0,283.73065634,12.29,302.2853,0.0,0.150537273964,1.80078
2020-09-01T08:48:49Z,12.98559,11.9149,0.0,94.78197,0,1156,0.0,13.04695,0.9995999,43690,0.0,1022.018,0.0,0.09800001,1020.217,0,298.472033881,12.08,296.6089,0.0,0.179628232941,1.80078
2020-09-01T09:03:48Z,12.98638,11.34125,0.0,94.88812,0,1156,0.0,12.95432,0.7644,43690,0.0,1022.587,0.0,0.0,1020.786,0,311.52886249,11.65,327.4209,0.0,0.0598437869822,1.80078
2020-09-01T09:18:46Z,12.987,12.02031,0.0004821722,95.3988,0,1156,0.7252,12.88428,1.176,43690,0.03375205,1022.587,2.410861e-06,1.058,1020.786,0,311.943658541,12.19,310.8747,0.0,0.251552660947,1.80078
2020-09-01T09:33:46Z,12.98684,12.12369,0.002893033,95.23248,0,1156,1.0584,12.88428,1.0192,43690,0.2025123,1022.587,1.446516e-05,0.9410001,1020.786,0,328.577361708,12.09,326.2607,0.7448,0.699917144379,1.80078
2020-09-01T09:48:49Z,12.98688,12.15619,0.008679098,94.51826,0,1156,0.6468,12.97691,1.1172,43690,0.6075369,1022.587,4.339549e-05,0.98,1020.786,0,357.938051104,12.33,334.2886,0.7056,0.691450872189,1.80078
2020-09-01T10:03:48Z,12.96911,12.42322,0.01928689,94.30758,0,1156,0.882,13.14183,1.0388,43690,1.350082,1023.977,9.643443e-05,1.039,1022.176,0,341.040178479,12.46,348.506,0.7448,0.730942654777,1.80078
2020-09-01T10:18:48Z,12.97449,12.5924,0.05400328,93.56162,0,1156,0.9211999,13.3045,1.078,43690,3.78023,1023.977,0.0002700164,0.96,1022.176,0,332.339100424,12.63,319.1756,0.7448,0.750366842012,1.80078
2020-09-01T10:33:49Z,12.96897,12.62625,0.1379012,92.51105,0,1156,0.0,13.51687,1.078,43690,9.653086,1023.977,0.0006895062,0.49,1022.176,0,326.465729724,12.69,326.4654,0.4508,0.390840231953,1.80078
2020-09-01T10:48:50Z,12.96897,13.47342,0.1730998,90.74893,0,1156,0.9211999,13.75409,0.9211999,43690,12.11699,1023.977,0.000865499,0.9020001,1022.176,0,327.110462241,13.58,299.7351,0.392,0.34502958284,1.80078
2020-09-01T11:03:50Z,12.95242,14.45614,0.2304591,87.69912,0,1156,0.6272,14.56291,1.0976,43690,16.13214,1024.62,0.001152295,0.9020001,1022.82,0,302.96145184,14.52,302.7907,0.0,0.288317152663,1.80078
2020-09-01T11:18:49Z,12.92682,15.18701,0.3119011,86.15136,0,1156,0.49,15.65187,1.2348,43690,21.83307,1024.62,0.001559505,1.176,1022.82,0,297.567611605,15.19,295.4704,0.8035999,0.738189324852,1.80078
2020-09-01T11:33:47Z,12.90392,15.69128,0.341264,85.26457,0,1156,0.7252,16.81086,1.3132,43690,23.88848,1024.62,0.00170632,0.96,1022.82,0,294.992160116,15.56,305.6716,0.7252,0.626383314286,1.80078
2020-09-01T11:48:48Z,12.89205,16.09492,0.3798236,85.05697,0,1156,0.0,17.84333,1.372,43690,26.58765,1024.62,0.001899118,1.254,1022.82,0,284.301848972,15.93,282.3512,0.9211999,0.864487555621,1.80078
2020-09-01T12:03:48Z,12.8776,16.07912,0.4178253,82.29002,0,1156,0.9015999,18.79222,1.2936,43690,29.24777,1025.173,0.002089127,1.156,1023.372,0,289.115375935,16.15,287.2247,0.8428,0.758717138462,1.80078
2020-09-01T12:18:48Z,12.86644,16.48496,0.4640214,80.32514,0,1156,1.0192,19.653,1.274,43690,32.48149,1025.173,0.002320107,1.058,1023.372,0,271.315463374,16.62,262.0726,0.9408,0.864719511834,1.80078
2020-09-01T12:33:49Z,12.84665,16.26839,0.5083487,82.94679,0,1156,0.7448,20.44825,1.1172,43690,35.58441,1025.173,0.002541743,0.8620001,1023.372,0,257.301596204,16.41,248.5973,0.7448,0.639029566272,1.80078
2020-09-01T12:48:50Z,12.83454,16.83834,0.5410137,80.0273,0,1156,1.1368,21.15088,1.176,43690,37.87096,1025.173,0.002705069,0.9020001,1023.372,0,257.114123229,16.91,255.4949,0.7644,0.766487559763,1.80078
2020-09-01T13:03:51Z,12.829,17.17672,0.5982542,80.83955,0,1156,0.9408,21.86255,1.1368,43690,41.87779,1025.552,0.002991271,0.9410001,1023.751,0,257.892575721,17.11,247.2742,0.784,0.771358557396,1.80078
2020-09-01T13:18:50Z,12.82321,17.91998,0.6310068,77.52002,0,1156,0.6076,22.58776,1.176,43690,44.17048,1025.552,0.003155034,0.882,1023.751,0,264.784975013,18.02,289.064,0.784,0.782608264497,1.80078
2020-09-01T13:33:50Z,12.81595,18.08079,0.662798,76.08719,0,1156,0.8035999,23.23843,1.4308,43690,46.39586,1025.552,0.00331399,1.294,1023.751,0,272.562706378,18.25,276.3816,0.784,0.804527789941,1.80078
2020-09-01T13:48:50Z,12.79737,18.71506,0.7047046,74.41753,0,1156,0.7448,23.83939,1.2348,43690,49.32932,1025.552,0.003523523,1.137,1023.751,0,272.427096376,18.68,291.8619,0.784,0.796873353254,1.80078
2020-09-01T14:03:51Z,12.7916,18.91712,0.7392273,74.85622,0,1156,0.686,24.3929,1.2936,43690,51.74591,1025.538,0.003696136,1.235,1023.737,0,270.913092704,18.98,270.7612,0.7644,0.795829571006,1.80078
2020-09-01T14:18:51Z,12.78608,19.05183,0.7627358,72.89264,0,1156,0.686,25.04357,1.2544,43690,53.39151,1025.538,0.003813679,1.039,1023.737,0,274.782585256,19.56,301.7288,0.8035999,0.811950271598,1.80078
2020-09-01T14:33:50Z,12.78267,19.81432,0.7940302,69.96381,0,1156,0.8231999,25.4909,1.176,43690,55.58211,1025.538,0.00397015,1.039,1023.737,0,275.108869877,19.85,278.7574,0.8035999,0.816937253846,1.80078
2020-09-01T14:48:50Z,12.77627,20.04747,0.8007714,70.06102,0,1156,0.784,25.91564,1.274,43690,56.054,1025.538,0.004003857,0.98,1023.737,0,274.690174097,20.08,261.1104,0.784,0.786203528402,1.80078
2020-09-01T15:03:50Z,12.75972,20.25035,0.8349594,67.38838,0,1156,0.8231999,26.31327,1.372,43690,58.44716,1024.954,0.004174797,1.058,1023.153,0,274.621122649,20.59,258.8522,0.8624,0.833289924852,1.80078
2020-09-01T15:18:51Z,12.74319,19.81057,0.853687,68.09879,0,1156,1.1956,26.80805,1.4308,43690,59.75809,1024.954,0.004268435,1.372,1023.153,0,266.216331218,20.25,254.2406,0.8624,0.767879272781,1.80078
2020-09-01T15:33:52Z,12.75421,19.53993,0.8145534,72.46281,0,1156,1.078,26.99556,1.3328,43690,57.01873,1024.954,0.004072766,0.0,1023.153,0,259.764454752,19.27,259.2125,0.0,0.254104133728,1.80078
2020-09-01T15:48:55Z,12.75972,19.06632,1.110065,73.88365,0,1156,0.9408,27.24634,1.3916,43690,77.70451,1024.954,0.005550322,1.137,1023.153,0,255.120400753,19.34,254.5528,0.9015999,0.82806709396,1.80078
2020-09-01T16:03:52Z,12.75972,20.96077,1.113905,69.95942,0,1156,0.6664,27.34123,1.3524,43690,77.97331,1024.954,0.005569522,1.235,1023.153,0,251.49677717,20.35,267.0667,0.6468,0.567520503205,1.80078
2020-09-01T16:18:53Z,12.75421,19.77674,1.220302,69.21517,0,1156,1.078,27.6259,1.2152,43690,85.4211,1024.954,0.006101507,1.098,1023.153,0,257.604108286,20.15,259.0924,0.8035999,0.790980804795,1.80078
2020-09-01T16:35:51Z,12.74205,21.42918,0.9415555,65.11629,0,1156,0.6468,28.13649,1.2152,43690,65.90889,1024.954,0.004707778,1.019,1023.153,0,258.019800121,21.23,257.1251,0.7448,0.629049040252,1.80078
2020-09-01T16:50:51Z,12.72877,22.16264,0.919879,60.67452,0,1156,0.7448,28.26752,1.1564,43690,64.39153,1024.954,0.004599395,1.058,1023.153,0,262.654581963,22.2,309.4766,0.8035999,0.69764636087,1.80078
2020-09-01T17:05:50Z,12.73345,22.63171,0.8539326,59.82478,0,1156,0.9799999,28.33078,1.176,43690,59.77528,1024.149,0.004269663,1.078,1022.348,0,277.107707521,23.11,280.8576,0.7644,0.75500589645,1.80078
2020-09-01T17:20:50Z,12.73931,21.82122,0.8399732,67.2999,0,1156,0.7644,28.23363,1.2348,43690,58.79812,1024.149,0.004199866,1.117,1022.348,0,272.558909141,21.79,265.8796,0.8035999,0.82319997574,1.80078
2020-09-01T17:35:51Z,12.73949,21.85455,0.8245697,59.2505,0,1156,0.8624,28.33078,1.176,43690,57.71988,1024.149,0.004122848,0.98,1022.348,0,272.56212604,21.96,307.321,0.8035999,0.79791713787,1.80078
2020-09-01T17:50:51Z,12.73339,22.69873,0.8057966,61.27837,0,1156,0.9015999,28.52733,1.2152,43690,56.40576,1024.149,0.004028983,0.9410001,1022.348,0,271.312129764,22.83,264.9836,0.7644,0.769966847929,1.80078
2020-09-01T18:05:50Z,12.72787,21.95471,0.7812472,63.84852,0,1156,0.882,28.85266,1.2544,43690,54.6873,1023.722,0.003906236,1.039,1021.921,0,276.225404343,21.65,270.3139,0.8035999,0.790958557396,1.80078
2020-09-01T18:20:50Z,12.72787,22.69871,0.7552538,60.50054,0,1156,0.9995999,29.18251,1.1956,43690,52.86777,1023.722,0.003776269,1.019,1021.921,0,278.368565101,22.6,268.5612,0.8035999,0.817865066864,1.80078
2020-09-01T18:35:49Z,12.72236,23.47652,0.6820871,57.254,0,1156,0.882,29.44911,1.274,43690,47.7461,1023.722,0.003410436,1.137,1021.921,0,275.214496329,23.38,267.1925,0.882,0.852657964497,1.80078
2020-09-01T18:51:18Z,12.72236,23.67943,0.6970093,54.88674,0,1156,0.9015999,29.65018,1.1368,43690,48.79065,1023.722,0.003485046,1.078,1021.921,0,275.472867777,23.78,294.1807,0.8035999,0.656539860123,1.80078
2020-09-01T19:06:14Z,12.72236,23.9838,0.6536869,56.74673,0,1156,0.9604,29.78347,1.1368,43690,45.75808,1023.965,0.003268434,1.098,1022.165,0,270.88643973,24.05,281.7911,0.784,0.557697347368,1.80078
2020-09-01T19:21:18Z,12.72236,20.56817,0.567042,59.65508,0,1156,0.0,29.68407,0.9604,43690,39.69294,1023.965,0.00283521,0.0,1022.165,0,251.116328763,20.67,258.3565,0.0,0.119199997959,1.80078
2020-09-01T19:36:18Z,12.72787,21.58271,0.5680048,47.27767,0,1156,1.078,29.28193,1.078,43690,39.76034,1023.965,0.002840024,1.078,1022.165,0,254.34755218,21.68,250.8171,0.0,0.138618418421,1.80078
2020-09-01T19:51:16Z,12.73888,22.15762,0.5184247,49.17148,0,1156,0.7252,28.95208,1.1368,43690,36.28973,1023.965,0.002592124,0.0,1022.165,0,256.2790742,22.26,275.0441,0.0,0.156300633758,1.80078
2020-09-01T20:06:19Z,12.73888,22.8678,0.4548852,45.92494,0,1156,0.9995999,28.72163,1.0584,43690,31.84196,1023.154,0.002274426,1.058,1021.353,0,270.510812385,23.0,270.3139,0.3136,0.416586966272,1.80078
2020-09-01T20:21:17Z,12.73931,22.46198,0.4337053,43.35477,0,1156,0.3724,28.49344,1.0976,43690,30.35937,1023.154,0.002168527,1.078,1021.353,0,259.800141762,22.5,251.9216,0.098,0.334698078981,1.80078
2020-09-01T20:36:17Z,12.74524,22.63107,0.3855694,47.58203,0,1156,0.0,28.23363,1.0388,43690,26.98985,1023.154,0.001927847,0.0,1021.353,0,263.136159382,22.66,257.228,0.4508,0.410208272189,1.80078
2020-09-01T20:51:16Z,12.75282,20.8877,0.3297397,47.32327,0,1156,0.0,27.72078,0.8624,43690,23.08178,1023.154,0.001648698,0.0,1021.353,0,247.985719074,21.02,254.4822,0.0,0.11933964497,1.80078
2020-09-01T21:06:16Z,12.76519,21.80637,0.3023558,50.77798,0,1156,0.0,27.05656,0.8428,43690,21.16491,1023.325,0.001511779,0.0,1021.524,0,269.460247973,21.74,279.9883,0.0,0.0185562130178,1.80078
2020-09-01T21:21:17Z,12.77624,21.87414,0.1959785,48.51149,0,1156,0.0,26.22064,0.9015999,43690,13.7185,1023.325,0.0009798926,0.0,1021.524,0,273.138315335,22.45,243.456,0.0,0.107394081065,1.80078
2020-09-01T21:36:17Z,12.79277,20.01418,0.06933916,62.72057,0,1156,0.0,25.13168,0.0392,43690,4.853742,1023.325,0.0003466958,0.0,1021.524,0,233.452195236,20.05,193.8349,0.0,0.000347928994083,1.80078
2020-09-01T21:51:17Z,12.81335,18.37402,0.04863772,72.72218,0,1156,0.3528,23.95687,0.7448,43690,3.404641,1023.325,0.0002431886,0.7450001,1021.524,0,101.399294508,18.48,113.1163,0.0,0.23601183432,1.80078
2020-09-01T22:06:17Z,12.81441,18.03993,0.04190612,74.99504,0,1156,0.0,22.86791,0.7056,43690,2.933428,1023.829,0.0002095306,0.706,1022.028,0,150.297428745,18.17,90.39406,0.0,0.139055621302,1.80078
2020-09-01T22:21:18Z,12.83369,17.34235,0.02841937,73.04886,0,1156,0.5292,21.91903,0.9995999,43690,1.989356,1023.829,0.0001420969,1.0,1022.028,0,104.840902184,17.51,97.50466,0.5684,0.533491121893,1.80078
2020-09-01T22:36:20Z,12.84551,16.49955,0.01685895,79.34989,0,1156,0.4704,21.04244,0.7056,43690,1.180127,1023.829,8.429476e-05,0.647,1022.028,0,90.9792919887,16.63,96.52521,0.4312,0.32125443787,1.80078
2020-09-01T22:51:17Z,12.85105,15.68719,0.006263039,78.26674,0,1156,0.0,20.263,0.6468,43690,0.4384127,1023.829,3.131519e-05,0.588,1022.028,0,90.7023825211,15.86,102.6543,0.4508,0.348802631579,1.80078
2020-09-01T23:06:22Z,12.87448,14.84713,0.0009636876,82.54155,0,1156,0.0,19.46774,0.0,43690,0.06745813,1023.683,4.818438e-06,0.0,1021.882,0,118.248543618,14.98,116.3436,0.0,0.0,1.80078
2020-09-01T23:21:18Z,12.8939,14.04633,0.0,82.69494,0,1156,0.0,18.63633,0.6468,43690,0.0,1023.683,0.0,0.0,1021.882,0,85.6850091743,14.18,83.14127,0.0,0.211983333333,1.80078
2020-09-01T23:36:20Z,12.90504,13.91128,0.0,82.52625,0,1156,0.0,17.89304,0.0,43690,0.0,1023.683,0.0,0.0,1021.882,0,82.2637716855,14.05,315.2083,0.0,0.0,1.80078
2020-09-01T23:51:20Z,12.92264,14.45509,0.0,80.0571,0,1156,0.0,17.2356,0.5684,43690,0.0,1023.683,0.0,0.0,1021.882,0,315.474272304,14.52,296.7057,0.0,0.0149104294479,1.80078
2020-09-02T00:06:19Z,12.93127,13.65756,0.0,84.4158,0,1156,0.0,16.71145,0.0,43690,0.0,1023.919,0.0,0.0,1022.118,0,276.982112047,13.69,270.3579,0.0,0.0,1.80078
2020-09-02T00:21:23Z,12.93147,13.65851,0.0,83.84142,0,1156,0.5684,16.29123,0.5684,43690,0.0,1023.919,0.0,0.666,1022.118,0,297.16936401,13.83,297.5648,0.0,0.00364358974359,1.80078
2020-09-02T00:39:57Z,12.93699,13.8279,0.0,86.95796,0,1156,0.882,15.84842,1.0192,43690,0.0,1023.919,0.0,1.039,1022.118,0,292.71152945,13.83,296.194,0.686,0.540418403947,1.80078
2020-09-02T00:54:53Z,12.93699,14.91191,0.0,83.23168,0,1156,0.588,15.65187,0.9015999,43690,0.0,1023.919,0.0,0.784,1022.118,0,315.182323672,15.01,322.4823,0.6272,0.602230128767,1.80078
2020-09-02T01:09:56Z,12.93699,13.92952,0.0,88.88886,0,1156,0.0588,15.57957,1.0976,43690,0.0,1025.012,0.0,1.0,1023.211,0,290.128343932,14.1,277.506,0.7252,0.556198654967,1.80078
2020-09-02T01:24:57Z,12.93699,14.03115,0.0,89.09211,0,1156,1.1172,15.45757,2.3324,43690,0.0,1025.012,0.0,1.254,1023.211,0,274.729655738,14.23,284.0961,0.0,0.332852068639,1.80078
2020-09-02T01:39:58Z,12.93745,13.86375,0.0,88.01134,0,1156,0.0,15.31072,2.5872,43690,0.0,1025.012,0.0,1.901,1023.211,0,271.741974175,14.1,266.5002,1.3524,1.30461774852,1.80078
2020-09-02T01:54:54Z,12.94859,13.21992,0.0,90.38239,0,1156,0.0,15.04413,1.078,43690,0.0,1025.012,0.0,0.0,1023.211,0,297.144231949,13.29,84.183,0.0,0.398533321429,1.80078
2020-09-02T02:09:56Z,12.94877,13.38762,0.0,88.58416,0,1156,0.0392,14.87694,0.8624,43690,0.0,1024.209,0.0,0.98,1022.409,0,14.9035245576,13.56,302.7125,0.0,0.222442602959,1.80078
2020-09-02T02:24:56Z,12.95013,13.01613,0.0,89.90722,0,1156,0.0,14.7798,0.9604,43690,0.0,1024.209,0.0,0.7640001,1022.409,0,323.728618086,13.12,305.4609,0.0,0.0661065088757,1.80078
2020-09-02T02:39:59Z,12.95525,12.65062,0.0,90.93582,0,1156,0.2744,14.61261,0.8624,43690,0.0,1024.209,0.0,0.9020001,1022.409,0,315.316739379,12.72,298.0933,0.1862,0.286750683562,1.80078
2020-09-02T02:54:56Z,12.95729,13.09818,0.0,90.33806,0,1156,0.0,14.46801,0.8624,43690,0.0,1024.209,0.0,0.8620001,1022.409,0,276.239101662,13.06,262.9115,0.0,0.0416331027586,1.80078
2020-09-02T03:09:56Z,12.96344,13.03281,0.0,88.71559,0,1156,0.0,14.30083,1.1368,43690,0.0,1024.207,0.0,0.725,1022.406,0,284.832799134,13.1,302.8624,0.686,0.522255103937,1.80078
2020-09-02T03:24:59Z,12.96345,12.59234,0.0,89.86783,0,1156,0.6076,14.13365,1.1368,43690,0.0,1024.207,0.0,0.9210001,1022.406,0,309.48190676,12.66,325.5028,0.6076,0.540913600592,1.80078
2020-09-02T03:39:58Z,12.96345,13.27008,0.0,87.69908,0,1156,0.6468,14.0862,1.0388,43690,0.0,1024.207,0.0,0.98,1022.406,0,346.663561387,13.37,6.423924,0.7252,0.710239038462,1.80078
2020-09-02T03:54:57Z,12.95793,13.54117,0.0,83.83598,0,1156,0.686,14.1585,0.9995999,43690,0.0,1024.207,0.0,0.8430001,1022.406,0,342.723018783,13.64,338.856,0.6468,0.645872185799,1.80078
2020-09-02T04:09:58Z,12.95793,13.16842,0.0,83.53101,0,1156,0.392,14.27598,0.8624,43690,0.0,1024.051,0.0,0.666,1022.25,0,346.71153258,13.41,4.378854,0.5782,0.537565853659,1.80078
2020-09-02T04:24:57Z,12.95793,11.64351,0.0,90.10504,0,1156,0.0,14.20594,0.7644,43690,0.0,1024.051,0.0,0.0,1022.25,0,47.1087396258,11.75,119.7208,0.0,0.0683100591716,1.80078
2020-09-02T04:39:57Z,12.96345,10.86411,0.0,92.5449,0,1156,0.5684,13.89643,0.9015999,43690,0.0,1024.051,0.0,0.8430001,1022.25,0,98.9264058532,11.03,94.67467,0.5684,0.439666269822,1.80078
2020-09-02T04:54:57Z,12.96897,10.76245,0.0,92.84988,0,1156,0.0,13.58917,0.9408,43690,0.0,1024.051,0.0,0.039,1022.25,0,94.1754147306,11.0,84.01626,0.6076,0.42470531716,1.80078
2020-09-02T05:09:57Z,12.97449,10.15249,0.0,93.25651,0,1156,0.0,13.3045,0.8035999,43690,0.0,1024.214,0.0,0.706,1022.413,0,102.734804029,10.69,101.5317,0.5292,0.411136092899,1.80078
2020-09-02T05:24:57Z,12.98001,10.35581,0.0,94.30701,0,1156,0.5684,13.02436,0.8231999,43690,0.0,1024.214,0.0,0.7640001,1022.413,0,95.2339253259,10.63,89.04472,0.6272,0.564108874556,1.80078
2020-09-02T05:40:02Z,12.98742,10.12553,0.0,94.76064,0,1156,0.588,12.74421,0.8428,43690,0.0,1024.214,0.0,0.8430001,1022.413,0,96.2315490048,10.23,101.5698,0.6468,0.656023525294,1.80078
2020-09-02T05:55:01Z,12.99324,10.56766,0.0,95.03466,0,1156,0.588,12.58154,0.8035999,43690,0.0,1024.214,0.0,0.7450001,1022.413,0,98.7468663524,10.8,94.49814,0.6272,0.618501773964,1.80078
2020-09-02T06:10:00Z,12.99324,11.00829,0.0,95.50922,0,1156,0.5488,12.58154,0.7644,43690,0.0,1023.489,0.0,0.706,1021.688,0,98.3691087947,10.84,104.0034,0.588,0.564920710059,1.80078
2020-09-02T06:24:58Z,12.99324,10.29655,0.0,95.00082,0,1156,0.6664,12.58154,0.7644,43690,0.0,1023.489,0.0,0.7640001,1021.688,0,97.5194283664,10.6,95.43668,0.6076,0.562253254438,1.80078
2020-09-02T06:39:58Z,12.99876,10.5338,0.0,95.17029,0,1156,0.686,12.48665,0.9015999,43690,0.0,1023.489,0.0,0.8430001,1021.688,0,98.6826965238,10.6,99.69596,0.6468,0.653642600592,1.80078
2020-09-02T06:54:59Z,12.99876,10.43298,0.0,95.00245,0,1156,0.6272,12.46406,0.8035999,43690,0.0,1023.489,0.0,0.804,1021.688,0,93.8071613548,10.53,89.71104,0.5488,0.421689939645,1.80078
2020-09-02T07:09:59Z,13.00436,9.721271,0.0,95.17201,0,1156,0.5488,12.34884,0.9995999,43690,0.0,1022.924,0.0,0.647,1021.123,0,100.017838289,9.92,100.6603,0.6272,0.640653249112,1.80078
2020-09-02T07:25:03Z,13.0054,9.792236,0.0,95.68651,0,1156,0.6272,12.16358,0.8035999,43690,0.0,1022.924,0.0,0.666,1021.123,0,103.475693835,9.76,104.06,0.588,0.593995293529,1.80078